When you browse on this site, cookies collect data to enhance your experience and personalize the content and advertising you see.
Visit our Privacy Policy to learn more. By continuing to use the site, you agree to this use of cookies and data.
  • In Hungary
  • List of Countries
  • For 7 days
  • Water Temperature
  • Weather Map
  • News
  • Weather Widgets
  • user-avatar
    Login

    Hourly Weather Orlow

    Today, 15 September, Sunday

    Time Temperature Precipitation Wind Pressure Humidity
    00:00 +10°C° 0 mm 2 mps 763 mmHg 74%
    01:00 +10°C° 0 mm 2 mps 762 mmHg 75%
    02:00 +9°C° 0 mm 2 mps 762 mmHg 75%
    03:00 +9°C° 0 mm 2 mps 762 mmHg 75%
    04:00 +9°C° 0 mm 2 mps 761 mmHg 75%
    05:00 +10°C° 0 mm 3 mps 761 mmHg 71%
    06:00 +11°C° 0 mm 3 mps 760 mmHg 67%
    07:00 +12°C° 0 mm 4 mps 760 mmHg 63%
    08:00 +14°C° 0 mm 5 mps 759 mmHg 58%
    09:00 +16°C° 0 mm 5 mps 758 mmHg 53%
    10:00 +19°C° 0 mm 6 mps 758 mmHg 48%
    11:00 +20°C° 0 mm 7 mps 757 mmHg 47%
    12:00 +21°C° 0 mm 7 mps 756 mmHg 46%
    13:00 +21°C° 0 mm 7 mps 756 mmHg 45%
    14:00 +21°C° 0 mm 7 mps 755 mmHg 47%
    15:00 +21°C° 0 mm 6 mps 754 mmHg 50%
    16:00 +21°C° 0 mm 6 mps 754 mmHg 52%
    17:00 +20°C° 0 mm 5 mps 754 mmHg 55%
    18:00 +19°C° 0 mm 5 mps 753 mmHg 58%
    19:00 +17°C° 0 mm 5 mps 753 mmHg 62%
    20:00 +16°C° 0 mm 5 mps 753 mmHg 60%
    21:00 +16°C° 0 mm 5 mps 753 mmHg 58%
    22:00 +15°C° 0 mm 5 mps 753 mmHg 56%
    23:00 +16°C° 0 mm 5 mps 753 mmHg 55%

    Tomorrow, 16 September, Monday

    Time Temperature Precipitation Wind Pressure Humidity
    00:00 +16°C° 0 mm 5 mps 753 mmHg 55%
    01:00 +16°C° 0 mm 5 mps 753 mmHg 55%
    02:00 +16°C° 0 mm 5 mps 753 mmHg 59%
    03:00 +16°C° 0 mm 5 mps 753 mmHg 63%
    04:00 +15°C° 0 mm 5 mps 753 mmHg 67%
    05:00 +15°C° 0 mm 5 mps 752 mmHg 63%
    06:00 +15°C° 0 mm 5 mps 752 mmHg 60%
    07:00 +14°C° 0 mm 5 mps 752 mmHg 57%
    08:00 +14°C° 0 mm 6 mps 752 mmHg 59%
    09:00 +14°C° 0 mm 6 mps 753 mmHg 61%
    10:00 +14°C° 0 mm 6 mps 753 mmHg 63%
    11:00 +15°C° 0 mm 6 mps 752 mmHg 60%
    12:00 +15°C° 0 mm 6 mps 752 mmHg 58%
    13:00 +16°C° 0 mm 6 mps 752 mmHg 56%
    14:00 +16°C° 0 mm 6 mps 752 mmHg 56%
    15:00 +16°C° 0 mm 6 mps 752 mmHg 56%
    16:00 +16°C° 0 mm 6 mps 751 mmHg 57%
    17:00 +15°C° 0 mm 5 mps 751 mmHg 63%
    18:00 +13°C° 0 mm 5 mps 751 mmHg 70%
    19:00 +12°C° 0 mm 5 mps 751 mmHg 76%
    20:00 +12°C° 0 mm 5 mps 751 mmHg 78%
    21:00 +10°C° 0 mm 5 mps 751 mmHg 79%
    22:00 +10°C° 0 mm 5 mps 751 mmHg 80%
    23:00 +10°C° 0 mm 5 mps 751 mmHg 75%

    Day after tomorrow, 17 September, Tuesday

    Time Temperature Precipitation Wind Pressure Humidity
    00:00 +11°C° 0 mm 4 mps 750 mmHg 71%
    01:00 +10°C° 0 mm 4 mps 750 mmHg 66%
    02:00 +9°C° 0 mm 5 mps 750 mmHg 68%
    03:00 +9°C° 0 mm 5 mps 750 mmHg 69%
    04:00 +8°C° 0 mm 6 mps 750 mmHg 70%
    05:00 +9°C° 0 mm 6 mps 750 mmHg 71%
    06:00 +9°C° 0 mm 6 mps 750 mmHg 72%
    07:00 +9°C° 0 mm 7 mps 750 mmHg 73%
    08:00 +10°C° 0 mm 7 mps 750 mmHg 67%
    09:00 +12°C° 0 mm 7 mps 750 mmHg 62%
    10:00 +13°C° 0 mm 8 mps 749 mmHg 56%
    11:00 +13°C° 0.2 mm 8 mps 749 mmHg 56%
    12:00 +13°C° 0.2 mm 9 mps 748 mmHg 56%
    13:00 +13°C° 0.2 mm 10 mps 748 mmHg 57%
    14:00 +13°C° 0.3 mm 10 mps 748 mmHg 59%
    15:00 +12°C° 0.3 mm 9 mps 747 mmHg 61%
    16:00 +11°C° 0.3 mm 9 mps 747 mmHg 63%
    17:00 +10°C° 0.1 mm 8 mps 747 mmHg 65%
    18:00 +9°C° 0.1 mm 7 mps 747 mmHg 68%
    19:00 +8°C° 0.1 mm 6 mps 747 mmHg 71%
    20:00 +8°C° 0 mm 6 mps 747 mmHg 71%
    21:00 +6°C° 0 mm 7 mps 748 mmHg 72%
    22:00 +6°C° 0 mm 8 mps 748 mmHg 73%
    23:00 +6°C° 0 mm 8 mps 748 mmHg 73%

    18 September, Wednesday

    Time Temperature Precipitation Wind Pressure Humidity
    00:00 +6°C° 0 mm 8 mps 748 mmHg 74%
    01:00 +6°C° 0 mm 8 mps 748 mmHg 74%
    02:00 +6°C° 0 mm 8 mps 749 mmHg 76%
    03:00 +5°C° 0 mm 7 mps 749 mmHg 77%
    04:00 +5°C° 0 mm 7 mps 749 mmHg 78%
    05:00 +6°C° 0 mm 7 mps 750 mmHg 77%
    06:00 +6°C° 0 mm 8 mps 750 mmHg 76%
    07:00 +7°C° 0 mm 8 mps 751 mmHg 74%
    08:00 +9°C° 0 mm 8 mps 751 mmHg 68%
    09:00 +10°C° 0 mm 8 mps 752 mmHg 62%
    10:00 +12°C° 0 mm 8 mps 752 mmHg 56%
    11:00 +12°C° 0.1 mm 8 mps 752 mmHg 53%
    12:00 +13°C° 0.1 mm 8 mps 752 mmHg 50%
    13:00 +13°C° 0.1 mm 8 mps 752 mmHg 47%
    14:00 +13°C° 0 mm 8 mps 753 mmHg 48%
    15:00 +14°C° 0 mm 7 mps 753 mmHg 49%
    16:00 +14°C° 0 mm 7 mps 753 mmHg 50%
    17:00 +11°C° 0.1 mm 6 mps 753 mmHg 58%
    18:00 +10°C° 0.1 mm 5 mps 754 mmHg 66%
    19:00 +8°C° 0.1 mm 4 mps 754 mmHg 74%
    20:00 +8°C° 0 mm 4 mps 754 mmHg 76%
    21:00 +9°C° 0 mm 3 mps 754 mmHg 78%
    22:00 +8°C° 0 mm 3 mps 755 mmHg 81%
    23:00 +8°C° 0 mm 3 mps 755 mmHg 82%

    19 September, Thursday

    Time Temperature Precipitation Wind Pressure Humidity
    00:00 +7°C° 0 mm 2 mps 755 mmHg 84%
    01:00 +7°C° 0 mm 2 mps 755 mmHg 86%
    02:00 +6°C° 0 mm 2 mps 755 mmHg 87%
    03:00 +5°C° 0 mm 3 mps 755 mmHg 88%
    04:00 +5°C° 0 mm 3 mps 755 mmHg 89%
    05:00 +7°C° 0 mm 3 mps 755 mmHg 87%
    06:00 +6°C° 0 mm 4 mps 755 mmHg 85%
    07:00 +7°C° 0 mm 4 mps 755 mmHg 83%
    08:00 +8°C° 0 mm 4 mps 755 mmHg 74%
    09:00 +10°C° 0 mm 5 mps 756 mmHg 66%
    10:00 +13°C° 0 mm 5 mps 756 mmHg 57%
    11:00 +14°C° 0.3 mm 5 mps 756 mmHg 54%
    12:00 +14°C° 0.3 mm 5 mps 756 mmHg 51%
    13:00 +15°C° 0.3 mm 5 mps 756 mmHg 47%
    14:00 +14°C° 0.4 mm 5 mps 756 mmHg 50%
    15:00 +14°C° 0.4 mm 5 mps 756 mmHg 53%
    16:00 +13°C° 0.4 mm 5 mps 756 mmHg 56%
    17:00 +12°C° 0.1 mm 4 mps 757 mmHg 60%
    18:00 +11°C° 0.1 mm 3 mps 757 mmHg 64%
    19:00 +10°C° 0.1 mm 3 mps 757 mmHg 68%
    20:00 +9°C° 0 mm 3 mps 758 mmHg 70%
    21:00 +7°C° 0 mm 3 mps 758 mmHg 71%
    22:00 +5°C° 0 mm 3 mps 758 mmHg 73%
    23:00 +5°C° 0.2 mm 4 mps 758 mmHg 76%

    20 September, Friday

    Time Temperature Precipitation Wind Pressure Humidity
    00:00 +5°C° 0.2 mm 5 mps 759 mmHg 80%
    01:00 +4°C° 0.2 mm 6 mps 759 mmHg 83%
    02:00 +5°C° 0.1 mm 5 mps 759 mmHg 84%
    03:00 +3°C° 0.1 mm 5 mps 759 mmHg 84%
    04:00 +3°C° 0.1 mm 5 mps 760 mmHg 85%
    05:00 +5°C° 0 mm 5 mps 760 mmHg 84%
    06:00 +5°C° 0 mm 5 mps 760 mmHg 82%
    07:00 +6°C° 0 mm 5 mps 761 mmHg 80%
    08:00 +7°C° 0 mm 5 mps 761 mmHg 73%
    09:00 +9°C° 0 mm 5 mps 762 mmHg 66%
    10:00 +10°C° 0 mm 5 mps 762 mmHg 59%
    11:00 +12°C° 0.1 mm 5 mps 762 mmHg 54%
    12:00 +13°C° 0.1 mm 5 mps 761 mmHg 49%
    13:00 +14°C° 0.1 mm 5 mps 761 mmHg 44%
    14:00 +13°C° 0 mm 5 mps 761 mmHg 45%
    15:00 +13°C° 0 mm 5 mps 761 mmHg 46%
    16:00 +13°C° 0 mm 5 mps 761 mmHg 46%
    17:00 +11°C° 0 mm 4 mps 761 mmHg 50%
    18:00 +10°C° 0 mm 4 mps 761 mmHg 54%
    19:00 +8°C° 0 mm 3 mps 761 mmHg 58%
    20:00 +8°C° 0 mm 3 mps 761 mmHg 60%
    21:00 +7°C° 0 mm 3 mps 761 mmHg 61%
    22:00 +7°C° 0 mm 3 mps 761 mmHg 63%
    23:00 +6°C° 0 mm 4 mps 761 mmHg 62%
    Show more